BAW567 EGKK-EDDF

Flight info

Callsign BAW567
Flight time N/A
Altitude 37000
Route MIMFO Y312 DVR UL9 KONAN UL607 SPI T180 NIVNU/N0450F230 T847 IMCOM IMCOM2C
Aircraft B77W/H-SDE1E2E3FGHIJ2J3J4J5M1RWXY/LB1D1

Departure

Time 2026-04-15 13:57
Airport London Gatwick Airport (EGKK)

Arrival

Time N/A
Airport Frankfurt Main Airport (EDDF)
Time Latitude Longitude Altitude Speed Heading
2026-04-15 13:14 51.15923 -0.17963 208 ft 0 kts 78°
2026-04-15 13:39 51.15923 -0.17967 208 ft 3 kts 78°
2026-04-15 13:40 51.15917 -0.18008 219 ft 4 kts 78°
2026-04-15 13:40 51.15911 -0.18050 217 ft 3 kts 78°
2026-04-15 13:40 51.15909 -0.18084 214 ft 4 kts 113°
2026-04-15 13:40 51.15925 -0.18107 221 ft 4 kts 166°
2026-04-15 13:41 51.15945 -0.18114 221 ft 0 kts 168°
2026-04-15 13:45 51.15943 -0.18113 221 ft 1 kts 168°
2026-04-15 13:45 51.15938 -0.18112 208 ft 1 kts 168°
2026-04-15 13:45 51.15930 -0.18109 215 ft 1 kts 168°
2026-04-15 13:47 51.15806 -0.18066 219 ft 4 kts 167°
2026-04-15 13:47 51.15780 -0.18057 214 ft 4 kts 167°
2026-04-15 13:47 51.15752 -0.18047 220 ft 4 kts 168°
2026-04-15 13:48 51.15723 -0.18029 217 ft 5 kts 144°
2026-04-15 13:48 51.15708 -0.17983 216 ft 5 kts 102°
2026-04-15 13:48 51.15707 -0.17925 213 ft 6 kts 87°
2026-04-15 13:48 51.15713 -0.17863 210 ft 6 kts 79°
2026-04-15 13:49 51.15721 -0.17793 217 ft 7 kts 79°
2026-04-15 13:49 51.15732 -0.17716 212 ft 7 kts 78°
2026-04-15 13:49 51.15742 -0.17635 214 ft 8 kts 78°
2026-04-15 13:49 51.15745 -0.17547 216 ft 8 kts 109°
2026-04-15 13:50 51.15701 -0.17497 217 ft 8 kts 159°
2026-04-15 13:50 51.15646 -0.17473 219 ft 8 kts 168°
2026-04-15 13:50 51.15590 -0.17454 216 ft 8 kts 168°
2026-04-15 13:50 51.15534 -0.17435 215 ft 8 kts 167°
2026-04-15 13:51 51.15479 -0.17414 208 ft 8 kts 168°
2026-04-15 13:51 51.15423 -0.17397 217 ft 8 kts 169°
2026-04-15 13:51 51.15367 -0.17376 218 ft 8 kts 166°
2026-04-15 13:51 51.15311 -0.17355 218 ft 8 kts 168°
2026-04-15 13:52 51.15258 -0.17324 218 ft 8 kts 150°
2026-04-15 13:52 51.15209 -0.17275 218 ft 8 kts 145°
2026-04-15 13:52 51.15187 -0.17190 217 ft 9 kts 92°
2026-04-15 13:52 51.15195 -0.17091 211 ft 9 kts 82°
2026-04-15 13:53 51.15209 -0.16989 208 ft 9 kts 77°
2026-04-15 13:53 51.15223 -0.16887 214 ft 9 kts 84°
2026-04-15 13:53 51.15223 -0.16884 214 ft 0 kts 89°
2026-04-15 13:54 51.15223 -0.16878 214 ft 3 kts 94°
2026-04-15 13:55 51.15207 -0.16835 214 ft 5 kts 135°
2026-04-15 13:55 51.15175 -0.16814 216 ft 6 kts 168°
2026-04-15 13:55 51.15133 -0.16830 216 ft 7 kts 226°
2026-04-15 13:55 51.15113 -0.16904 218 ft 7 kts 256°
2026-04-15 13:56 51.15110 -0.16920 216 ft 0 kts 256°
2026-04-15 13:57 51.15100 -0.16991 218 ft 25 kts 256°
2026-04-15 13:57 51.14960 -0.17905 218 ft 145 kts 256°
2026-04-15 13:57 51.14690 -0.19785 1191 ft 178 kts 251°
2026-04-15 13:58 51.14413 -0.21712 2878 ft 183 kts 252°
2026-04-15 13:58 51.14146 -0.23768 3631 ft 196 kts 253°
2026-04-15 13:58 51.13871 -0.25938 4003 ft 200 kts 253°
2026-04-15 13:58 51.13766 -0.28154 3997 ft 211 kts 272°
2026-04-15 13:59 51.14354 -0.30371 3995 ft 227 kts 297°
2026-04-15 13:59 51.15600 -0.32025 3991 ft 244 kts 327°
2026-04-15 13:59 51.17316 -0.32463 4006 ft 260 kts
2026-04-15 13:59 51.18952 -0.31220 3995 ft 267 kts 45°
2026-04-15 14:00 51.19832 -0.28702 4009 ft 258 kts 83°
2026-04-15 14:00 51.20063 -0.25886 4016 ft 258 kts 91°
2026-04-15 14:00 51.20235 -0.23018 4002 ft 261 kts 90°
2026-04-15 14:00 51.20451 -0.20127 4006 ft 267 kts 88°
2026-04-15 14:01 51.21149 -0.14102 4076 ft 285 kts 83°
2026-04-15 14:01 51.21555 -0.10985 4770 ft 289 kts 83°
2026-04-15 14:01 51.21971 -0.07817 5006 ft 295 kts 83°
2026-04-15 14:02 51.22394 -0.04585 4965 ft 299 kts 83°
2026-04-15 14:02 51.22820 -0.01336 4985 ft 299 kts 83°
2026-04-15 14:02 51.23243 0.01906 4855 ft 296 kts 82°
2026-04-15 14:02 51.23660 0.05108 4887 ft 295 kts 82°
2026-04-15 14:03 51.24076 0.08319 5524 ft 295 kts 82°
2026-04-15 14:03 51.24493 0.11553 5800 ft 299 kts 82°
2026-04-15 14:03 51.24914 0.14821 5748 ft 300 kts 82°
2026-04-15 14:03 51.25332 0.18074 5733 ft 298 kts 82°
2026-04-15 14:04 51.25510 0.21310 5714 ft 289 kts 100°
2026-04-15 14:04 51.25255 0.24498 5696 ft 291 kts 103°
2026-04-15 14:04 51.24978 0.27679 5657 ft 294 kts 103°
2026-04-15 14:04 51.24712 0.30901 5620 ft 291 kts 103°
2026-04-15 14:05 51.24459 0.34091 5614 ft 289 kts 103°
2026-04-15 14:05 51.24210 0.37280 5612 ft 290 kts 102°
2026-04-15 14:05 51.23965 0.40479 5630 ft 291 kts 102°
2026-04-15 14:05 51.23721 0.43683 5631 ft 291 kts 102°
2026-04-15 14:06 51.23478 0.46880 5613 ft 289 kts 102°
2026-04-15 14:06 51.23234 0.50064 5622 ft 289 kts 102°
2026-04-15 14:06 51.22985 0.53265 6211 ft 291 kts 103°
2026-04-15 14:06 51.22734 0.56482 7313 ft 294 kts 103°
2026-04-15 14:07 51.22480 0.59731 8458 ft 297 kts 103°
2026-04-15 14:07 51.22221 0.63028 9549 ft 302 kts 103°
2026-04-15 14:07 51.21954 0.66406 10422 ft 314 kts 103°
2026-04-15 14:07 51.21662 0.70016 10814 ft 345 kts 103°
2026-04-15 14:08 51.21337 0.73983 11105 ft 377 kts 103°
2026-04-15 14:08 51.20995 0.78239 11799 ft 394 kts 102°
2026-04-15 14:08 51.20650 0.82619 12829 ft 402 kts 103°
2026-04-15 14:08 51.20303 0.87063 13974 ft 406 kts 103°
2026-04-15 14:09 51.19950 0.91551 15021 ft 410 kts 103°
2026-04-15 14:09 51.19586 0.96093 16071 ft 415 kts 102°
2026-04-15 14:09 51.19225 1.00574 17034 ft 420 kts 102°
2026-04-15 14:09 51.18846 1.05214 17976 ft 426 kts 103°
2026-04-15 14:10 51.18458 1.09932 18791 ft 432 kts 103°
2026-04-15 14:10 51.18064 1.14713 19592 ft 438 kts 103°
2026-04-15 14:10 51.17665 1.19548 20436 ft 442 kts 103°
2026-04-15 14:10 51.17265 1.24373 21244 ft 447 kts 103°
2026-04-15 14:11 51.16854 1.29297 22022 ft 452 kts 103°
2026-04-15 14:11 51.16434 1.34289 22779 ft 457 kts 103°
2026-04-15 14:11 51.16089 1.39369 23522 ft 465 kts 101°
2026-04-15 14:11 51.15829 1.44539 24121 ft 470 kts 99°
2026-04-15 14:12 51.15590 1.49763 24744 ft 475 kts 99°
2026-04-15 14:12 51.15352 1.55047 25366 ft 479 kts 99°
2026-04-15 14:12 51.15120 1.60084 25935 ft 483 kts 100°
2026-04-15 14:12 51.14851 1.65677 26538 ft 487 kts 100°